Regional Weather Roundup
Issued by NWS

Home | Current Version | Previous Version | Text Only | Print | Product List | Glossary Off
Versions: 1 2 3 4 5 6 7 8 9 10 11 12 13 14 15 16 17 18 19 20 21 22 23 24 25 26 27 28 29 30 31 32 33 34 35 36 37 38 39 40 41 42 43 44 45 46 47 48 49 50

406
ASUS43 KIND 291209
RWRIN

WEATHER ROUNDUP FOR INDIANA
NATIONAL WEATHER SERVICE INDIANAPOLIS IN
800 AM EDT THU SEP 29 2016

NOTE: "FAIR" INDICATES FEW OR NO CLOUDS BELOW 12,000 FEET WITH NO
SIGNIFICANT WEATHER AND/OR OBSTRUCTIONS TO VISIBILITY.

* - STATION DOES NOT REPORT WEATHER SUCH AS PRECIPITATION OR FOG.

+ - STATION NOT QUALITY CONTROLLED BY THE NATIONAL WEATHER SERVICE.
    USE DATA WITH CAUTION...ESPECIALLY DEWPOINT AND RELATIVE
    HUMIDITY OBSERVATIONS.

INZ001>003-010>013-019-020-291300-
NORTHWEST INDIANA

CITY           SKY/WX    TMP DP  RH WIND       PRES   REMARKS
GARY /AIRPORT/ LGT RAIN  63  59  88 NE7       30.09R
KNOX *+        MOCLDY    55  43  62 N8        30.07R
LA PORTE +     RAIN     N/A N/A N/A CALM      30.08S
                                      6HR PCP:  0.04;

MICHIGAN CITY+ HVY RAIN  55  55 100 CALM      30.09S
MONTICELLO +   CLOUDY    56  52  86 N5        30.05R
6HR MIN TEMP:  55; 6HR MAX TEMP:  56;

RENSSELAER +   CLOUDY    55  55 100 N6        30.08R
VALPARAISO     LGT RAIN  57  55  93 N3        30.09R
6HR MIN TEMP:  56; 6HR MAX TEMP:  57; 6HR PCP:  0.06;


$$

LMZ046-743>745-291300-
SOUTHERN LAKE MICHIGAN

STATION/POSITION TIME  TEMP    WIND        PRES    WAVE
                       AIR SEA DIR/SP/G            HT
                 (UTC) (F)     (DEG/KT/KT) (MB)    (FT)
BURNS HARBOR     1140   62      50/ 20/ 21 1019.0R
MICHIGAN CITY    1140   60      30/ 21/ 22   N/A
5NW MICH CITY    1200   62 65   40/ 16/ 23   N/A     6

$$

INZ004-005-014>016-021>024-291300-
NORTH CENTRAL INDIANA

CITY           SKY/WX    TMP DP  RH WIND       PRES   REMARKS
ELKHART        CLOUDY   N/A N/A N/A N8        30.07R
GOSHEN         CLOUDY    57  54  89 N7        30.07R
6HR MIN TEMP:  56; 6HR MAX TEMP:  58; 6HR PCP:  0.05;

LOGANSPORT +   CLOUDY    54  54 100 N5        30.06R FOG
PERU/GRISSOM   CLOUDY    56  56 100 N7        30.03R
6HR MIN TEMP:  54; 6HR MAX TEMP:  56; 6HR PCP:  0.04;

ROCHESTER +    CLOUDY    59  59 100 N3        30.06S
SOUTH BEND     CLOUDY    56  56 100 N8        30.08S
6HR MIN TEMP:  55; 6HR MAX TEMP:  56; 6HR PCP:  0.08;

WARSAW +       CLOUDY    55  54  94 N3        30.06R

$$

INZ006>009-017-018-025>027-291300-
NORTHEAST INDIANA

CITY           SKY/WX    TMP DP  RH WIND       PRES   REMARKS
ANGOLA *+        N/A     57  46  67 CALM      30.06R
AUBURN +       CLOUDY    55  54  94 N3        30.06R
FORT WAYNE     CLOUDY    57  54  89 N5        30.05R
6HR MIN TEMP:  55; 6HR MAX TEMP:  57;

HUNTINGTON +   CLOUDY    55  54  96 CALM      30.04R
6HR MIN TEMP:  53; 6HR MAX TEMP:  55;

KENDALLVILLE + CLOUDY    56  56  99 NE3       30.06R

$$

INZ028-029-035-036-043>045-051>053-291300-
WEST CENTRAL INDIANA

CITY           SKY/WX    TMP DP  RH WIND       PRES   REMARKS
CRAWFORDSVL +  CLOUDY    53  53 100 NE5       30.04R
6HR MIN TEMP:  52; 6HR MAX TEMP:  53;

GREENCASTLE +  MOCLDY    52  52 100 CALM      30.04R FOG
LAFAYETTE      NOT AVBL
TERRE HAUTE    CLOUDY    55  53  93 N5        30.03R
6HR MIN TEMP:  55; 6HR MAX TEMP:  56; 6HR PCP:  0.10;


$$

INZ030>032-037>040-046>048-054>057-064-065-291300-
CENTRAL INDIANA

CITY           SKY/WX    TMP DP  RH WIND       PRES   REMARKS
COLUMBUS       CLOUDY    54  54 100 CALM      30.02R FOG
FISHERS *+     CLOUDY    52  52 100 CALM      30.04R
FRANKFORT +    CLOUDY    57  55  92 NE8       30.06R
6HR MIN TEMP:  56; 6HR MAX TEMP:  57; 6HR PCP:  0.02;

GREENWOOD *+   CLOUDY    55  55 100 CALM      30.03R
INDIANAPOLIS   CLOUDY    55  51  86 N9        30.02R
6HR MIN TEMP:  53; 6HR MAX TEMP:  56;

-EAGLE CREEK   CLOUDY    56  51  84 CALM      30.02R
6HR MIN TEMP:  55; 6HR MAX TEMP:  56;

KOKOMO *+      CLOUDY    55  54  94 N7        30.05R
6HR MIN TEMP:  54; 6HR MAX TEMP:  55;

MARION +       CLOUDY    55  53  95 N3        30.04R FOG
MT COMFORT *+  CLOUDY    54  52  94 N5        30.04R
SHELBYVILLE    CLOUDY    56  52  86 N5        30.02R
6HR MIN TEMP:  55; 6HR MAX TEMP:  56;

ZIONSVILLE +   CLOUDY    53  51  93 NE3       30.04R
6HR MIN TEMP:  53; 6HR MAX TEMP:  54;


$$

INZ033-034-041-042-049-050-058-059-291300-
EAST CENTRAL INDIANA

CITY           SKY/WX    TMP DP  RH WIND       PRES   REMARKS
MUNCIE         CLOUDY    55  53  93 NE3       30.03R FOG
6HR MIN TEMP:  54; 6HR MAX TEMP:  56;


$$

INZ060-061-067>069-081>083-085>088-291300-
SOUTHWEST INDIANA

CITY           SKY/WX    TMP DP  RH WIND       PRES   REMARKS
EVANSVILLE     LGT RAIN  54  51  90 W6        30.04S
6HR MIN TEMP:  52; 6HR MAX TEMP:  54; 6HR PCP:  0.01;

HUNTINGBURG *+   N/A     52  48  87 S3        30.03S
6HR MIN TEMP:  48; 6HR MAX TEMP:  54;

WASHINGTON +   CLOUDY    54  54 100 MISG      30.02R
6HR MIN TEMP:  51; 6HR MAX TEMP:  54; 6HR PCP:  0.01;


$$

INZ062-063-066-070>080-084-089>092-291300-
SOUTH CENTRAL AND SOUTHEAST INDIANA

CITY           SKY/WX    TMP DP  RH WIND       PRES   REMARKS
BLOOMINGTON    CLOUDY    54  52  93 CALM      30.02R
6HR MIN TEMP:  53; 6HR MAX TEMP:  54; 6HR PCP:  0.02;

MADISON *+     CLOUDY    54  52  94 CALM      30.04R
NORTH VERNON + CLOUDY   N/A N/A N/A CALM      30.03R HAZE
SEYMOUR +      CLOUDY    55  54  94 CALM      30.03R FOG

$$





USA.gov is the U.S. government's official web portal to all federal, state and local government web resources and services.